星链-5556 (STARLINK-5556 )

导读 | 豆包AI

STARLINK-5556是美国太空探索技术公司(SpaceX)于2023年1月26日发射的星链(Starlink)卫星,隶属于SpaceX打造的低轨巨型卫星星座。星链星座旨在为全球提供高速宽带互联网接入服务,尤其能为网络基础设施匮乏的区域实现网络覆盖,该卫星运行在近地轨道,是SpaceX全球卫星互联网组网的组成单元。

基本信息
目录编号:
55385
目录名称:
STARLINK-5556
国际标识:
2023-013BG
轨道中心:
EARTH
卫星名称:
星链-5556
卫星全名:
星链-5556 (STARLINK-5556 )
卫星状态:
在轨 (已飞行1190 天)
发射日期:
2023-01-26 UTC
国别 :
美国 (US)
星等 :
--
轨道信息
数据来源 国际轨道数据
星历时间: 2026-04-30T11:59:32+0800
8小时前
查看轨道信息
半长轴: 6861.153km
偏心率: 0.0001701
轨道倾角: 43.001°
近地点辐角 259.214°
升交点赤经 27.582°
平近点角 100.852°
近地点: 481.848km
远地点: 484.184km
周期: 94.266分钟
每日圈数: 15.275911
详细信息
固有亮度:
5
最大亮度:
2.5
卫星平台:
Starlink v1.5
覆盖范围:
全球
运营商:
太空探索技术公司
运营商所在国:
美国
制造商(研发单位):
太空探索技术公司
制造商所在国:
美国
使用方式:
暂无
卫星简介
星链(Starlink)计划是由太空探索技术公司(SpaceX)提出的一个巨型低轨卫星互联网星座项目,计划在2019年至2024年间在太空搭建由约1.2万颗卫星组成的“星链”网络,其中1584颗将部署在地球上空550千米处的近地轨道,并从2020年开始工作。该卫星仍在工作。
2D轨道图
3D轨道图
轨道高度分析图
轨道倾角分析图
轨道综合分析图
查看轨道综合分析图